Showing default

HUBBLE 7, 64592

Orbit data source: Space-Track

HUBBLE 7, 64592 is an American payload satellite in SSO that was launched on Mon, 23 Jun 2025 UTC via an FALCON 9 launch vehicle from the Air Force Western Test Range (AFWTR). Payload-class satellites include a variety of spacecraft equipped with specific instruments for various scientific and technological missions. These include communications satellites like Starlink; space stations such as the ISS; scientific satellites like the Hubble; Earth observation satellites from companies like Planet Labs, Umbra, and HawkEye 360; GPS; miniature CubeSats for education and research; and military/defense satellites.

Loading next visibility...
Identifier
64592, 2025-135BS
Orbit
SSO
Country
Flag of USUS
Related business
Manufacturer
Endurosat
Mission
Operational Commercial Communications
Bus & Motor
CUBESAT 16U, Unknown motor
Mass
22 kg wet, 22 kg dry
Launch date (UTC)
2025-06-23 (8 months ago)
Launch vehicle
FALCON 9
Launch site
Air Force Western Test Range (AFWTR)
Object type
Payload
Rocket body
Debris
Shape & HBR
Box + 4 Pan, 1.0 m
Radar Cross Section
0.326 m², Medium (>0.1 m² and < 1m²)

Expand to show TLE details & history
Last TLE update: 12 hours ago

TLE from 12 hours ago
0 HUBBLE 7
1 64592U 25135BS  26062.30856947  .00004249  00000-0  40587-3 0  9996
2 64592  97.7628 178.2243 0004683 350.8029   9.3105 14.93800404 38105
Epoch: 2026-03-03T07:24Z
TLE epoch observation values (Epoch: 2026-03-03T07:24:20.402Z)
Latitude
0.00006°
Longitude
-93.95021°
Altitude
585.924 km
Speed
7.569 km/s
True Right ascension
11h 52m 53s
True Declination
0° 00' 00"
Sunlit
Object was in full shadow at epoch
Visualization orbit readout
Latitude
Unknown
Longitude
Unknown
Altitude
Unknown
Speed
Unknown
Apparent Right ascension
Unknown
Apparent Declination
Unknown
Sunlit
N/A
Visualization observer readout
Local Sidereal Time
23:38:10
Azimuth
Unknown
Elevation
Unknown
Doppler factor
Unknown
Orbital elements
Apogee altitude
586.375 km
Perigee altitude
579.855 km
Semi-major axis
6,961.252 km
Eccentricity
0.00047
Inclination
97.7628°
RAAN
178.2243°
Arg. of periapsis
350.8029°
True anomaly
9.31919°
Mean anomaly
9.3105°
Eccentric anomaly
9.31484°
Mean motion
3.73691 °/min
Orbital period
96.34 mins
BSTAR
0.00040587
Loading maneuver chart data...
Computing Atmospheric mass density...
Loading historical data...
Loading historical data...
Loading historical data...
Loading historical data...
Loading historical data...
Loading historical data...
Loading historical data...

Documentation

Showing up to 5 results
|